GW3397 Weather Reports


time (UTC)temp
C
wind
direction
speed
KPH
gust
KPH
rain 1hr
cm
rain 24hr
cm
rain mn
cm
humidity
%
barometer
mb
20260510081629 9 10 0.0 3.2 0.00 0.05 0.05 97 1012.1
20260510081125 9 317 1.6 1.6 0.00 0.05 0.05 96 1011.9
20260510080619 9 143 3.2 3.2 0.00 0.05 0.05 97 1011.8
20260510080116 9 81 1.6 1.6 0.00 0.05 0.05 96 1011.9
20260510075613 9 42 1.6 4.8 0.00 0.05 0.05 96 1011.9
20260510075110 10 60 3.2 3.2 0.00 0.05 0.05 96 1011.8
20260510074602 10 286 3.2 3.2 0.00 0.05 0.05 96 1012.1
20260510074057 10 257 3.2 3.2 0.00 0.05 0.05 96 1012.3
20260510073554 10 82 3.2 3.2 0.00 0.05 0.05 96 1012.0
20260510073051 10 33 3.2 4.8 0.00 0.05 0.05 96 1012.2
20260510072547 10 343 0.0 1.6 0.00 0.05 0.05 95 1012.2
20260510072043 10 46 0.0 1.6 0.00 0.05 0.05 95 1012.0
20260510071539 10 77 0.0 8.0 0.13 0.05 0.05 95 1011.8
20260510071038 10 61 0.0 3.2 0.13 0.05 0.05 95 1011.7
20260510070534 10 359 1.6 3.2 0.00 0.03 0.03 94 1012.1
20260510070031 10 346 1.6 3.2 0.00 0.03 0.03 94 1012.0
20260510065527 10 73 1.6 3.2 0.00 0.03 0.03 94 1011.5
20260510065023 10 225 0.0 8.0 0.00 0.03 0.03 94 1011.8
20260510064520 10 140 4.8 8.0 0.00 0.03 0.03 95 1011.8
20260510064017 10 176 4.8 9.7 0.00 0.03 0.03 95 1012.0
20260510063514 10 172 8.0 11.3 0.00 0.03 0.03 95 1012.3
20260510063011 10 166 4.8 8.0 0.00 0.03 0.03 96 1012.2
20260510062507 10 165 4.8 4.8 0.00 0.03 0.03 96 1012.3
20260510062002 10 161 1.6 3.2 0.00 0.03 0.03 96 1012.1
20260510061459 10 130 3.2 4.8 0.00 0.03 0.03 96 1012.4
20260510060955 10 133 3.2 3.2 0.00 0.03 0.03 96 1012.7
20260510060452 10 138 3.2 3.2 0.00 0.03 0.03 96 1012.8
20260510055948 10 146 3.2 3.2 0.18 0.03 0.03 97 1012.9
20260510055444 10 73 3.2 3.2 0.18 0.03 0.03 97 1013.1
20260510054943 10 346 0.0 0.0 0.00 0.00 0.00 97 1013.3
20260510054437 10 1 0.0 1.6 0.00 0.00 0.00 97 1013.5
20260510053932 10 346 0.0 0.0 0.00 0.00 0.00 97 1013.4
20260510053428 10 332 0.0 0.0 0.00 0.00 0.00 97 1013.5
20260510052925 10 252 1.6 1.6 0.00 0.00 0.00 97 1013.4
20260510052421 10 299 0.0 0.0 0.00 0.00 0.00 96 1013.2
20260510051917 9 310 0.0 1.6 0.00 0.00 0.00 96 1013.4
20260510051414 9 309 1.6 4.8 0.00 0.00 0.00 96 1013.4
20260510050910 9 283 6.4 11.3 0.00 0.00 0.00 96 1013.3
20260510050407 9 281 8.0 9.7 0.00 0.00 0.00 96 1013.3
20260510045904 9 322 0.0 0.0 0.00 0.00 0.00 95 1012.6
20260510045401 9 308 1.6 1.6 0.00 0.00 0.00 95 1012.7
20260510044858 9 326 1.6 1.6 0.00 0.00 0.00 95 1012.5
20260510044355 9 304 3.2 3.2 0.00 0.00 0.00 94 1012.3
20260510043851 10 321 1.6 1.6 0.00 0.00 0.00 94 1012.3
20260510043347 10 288 1.6 1.6 0.00 0.00 0.00 94 1012.1
20260510042845 10 193 1.6 1.6 0.00 0.00 0.00 94 1012.3
20260510042341 10 112 1.6 3.2 0.00 0.00 0.00 94 1012.1
20260510041837 10 148 3.2 3.2 0.00 0.00 0.00 94 1012.1
20260510041335 10 33 0.0 1.6 0.00 0.00 0.00 94 1012.2
20260510040832 10 122 4.8 4.8 0.00 0.00 0.00 94 1012.0
20260510040328 10 116 4.8 8.0 0.00 0.00 0.00 95 1011.9
20260510035824 10 141 4.8 4.8 0.00 0.58 0.58 95 1012.1
20260510035320 10 146 3.2 8.0 0.00 0.58 0.58 95 1012.0
20260510034816 10 167 3.2 4.8 0.00 0.58 0.58 96 1012.1
20260510034314 10 163 3.2 3.2 0.00 0.58 0.58 97 1012.0
20260510033810 10 146 4.8 4.8 0.00 0.58 0.58 97 1012.2
20260510033307 9 135 4.8 8.0 0.00 0.58 0.58 97 1012.1
20260510032804 9 343 0.0 0.0 0.00 0.58 0.58 97 1012.0
20260510032300 10 331 0.0 0.0 0.00 0.58 0.58 97 1012.1
20260510031756 10 204 1.6 4.8 0.00 0.58 0.58 98 1012.0
20260510031252 10 147 1.6 4.8 0.00 0.58 0.58 98 1011.8
20260510030750 10 136 3.2 8.0 0.00 0.58 0.58 98 1012.0
20260510030243 10 159 3.2 4.8 0.00 0.58 0.58 98 1011.8
20260510025740 9 159 1.6 3.2 0.00 0.58 0.58 98 1011.9
20260510025238 10 117 4.8 8.0 0.00 0.58 0.58 98 1011.6
20260510024734 9 114 0.0 0.0 0.00 0.58 0.58 98 1011.6
20260510024230 9 69 0.0 0.0 0.00 0.58 0.58 98 1011.9
20260510023726 9 265 0.0 0.0 0.00 0.58 0.58 98 1011.6
20260510023223 9 348 0.0 0.0 0.00 0.58 0.58 98 1011.8
20260510022719 9 27 0.0 0.0 0.00 0.58 0.58 98 1012.1
20260510022214 9 350 0.0 0.0 0.00 0.58 0.58 98 1012.2
20260510021709 9 320 1.6 1.6 0.00 0.58 0.58 98 1012.2
20260510021207 9 331 0.0 1.6 0.00 0.58 0.58 98 1012.2
20260510020702 10 305 0.0 0.0 0.00 0.58 0.58 98 1012.2
20260510020157 10 132 1.6 3.2 0.00 0.58 0.58 98 1012.1
20260510015653 10 118 4.8 8.0 0.00 0.58 0.58 98 1011.9
20260510015150 10 138 4.8 4.8 0.00 0.58 0.58 98 1011.7
20260510014649 10 132 4.8 8.0 0.00 0.58 0.58 98 1011.7
20260510014147 10 141 4.8 11.3 0.00 0.58 0.58 98 1011.5
20260510013642 10 136 8.0 11.3 0.00 0.58 0.58 98 1011.6
20260510013138 10 118 8.0 11.3 0.00 0.58 0.58 98 1011.5
20260510012638 10 134 9.7 12.9 0.00 0.58 0.58 98 1011.9
20260510012134 10 133 8.0 11.3 0.00 0.58 0.58 98 1011.9
20260510011629 10 107 8.0 12.9 0.00 0.58 0.58 98 1012.0
20260510011125 10 126 8.0 12.9 0.00 0.58 0.58 98 1011.7
20260510010621 10 137 11.3 12.9 0.00 0.58 0.58 98 1011.6
20260510010119 10 116 9.7 11.3 0.00 0.58 0.58 98 1011.6
20260510005614 10 113 11.3 16.1 0.00 0.58 0.58 98 1011.6
20260510005112 10 119 8.0 12.9 0.00 0.58 0.58 98 1011.6
20260510004610 10 128 9.7 16.1 0.00 0.58 0.58 98 1011.4
20260510004107 10 156 11.3 12.9 0.00 0.58 0.58 98 1011.8
20260510003604 10 112 8.0 11.3 0.00 0.58 0.58 98 1011.7
20260510003100 10 129 4.8 9.7 0.00 0.58 0.58 98 1011.6
20260510002554 10 91 6.4 11.3 0.00 0.58 0.58 98 1011.4
20260510002051 10 73 3.2 4.8 0.00 0.58 0.58 98 1011.5
20260510001548 10 107 1.6 4.8 0.00 0.58 0.58 98 1011.4
20260510001047 10 97 6.4 8.0 0.00 0.58 0.58 98 1011.6
20260510000542 10 86 1.6 4.8 0.00 0.58 0.58 98 1011.3
20260510000039 10 127 3.2 4.8 0.00 0.58 0.58 98 1011.5
20260509235536 10 88 4.8 8.0 0.00 0.58 0.58 98 1011.3
20260509235033 10 83 3.2 8.0 0.00 0.58 0.58 98 1011.5
20260509234529 10 92 3.2 8.0 0.00 0.58 0.58 98 1011.5
20260509234027 10 69 4.8 4.8 0.00 0.58 0.58 98 1011.3
20260509233524 10 88 4.8 4.8 0.00 0.58 0.58 98 1011.3
20260509233021 10 58 1.6 4.8 0.00 0.58 0.58 98 1011.2
20260509232518 10 75 3.2 4.8 0.00 0.58 0.58 98 1011.0
20260509232015 10 91 3.2 8.0 0.00 0.58 0.58 98 1011.3
20260509231511 10 82 6.4 9.7 0.00 0.58 0.58 98 1011.0
20260509231009 10 99 4.8 8.0 0.00 0.58 0.58 98 1011.1
20260509230505 10 93 4.8 4.8 0.00 0.58 0.58 98 1011.0
20260509230003 10 85 4.8 9.7 0.00 0.58 0.58 98 1010.8
20260509225458 10 66 3.2 4.8 0.00 0.58 0.58 98 1011.0
20260509224954 10 120 4.8 9.7 0.00 0.58 0.58 98 1011.1
20260509224449 10 62 3.2 4.8 0.00 0.58 0.58 98 1011.0
20260509223946 10 72 3.2 8.0 0.00 0.58 0.58 98 1011.1
20260509223443 10 64 3.2 8.0 0.00 0.58 0.58 98 1011.0
20260509222941 10 66 4.8 9.7 0.00 0.58 0.58 98 1011.1
20260509222436 10 59 3.2 8.0 0.00 0.58 0.58 98 1010.9
20260509221932 11 39 3.2 8.0 0.00 0.58 0.58 98 1010.9
20260509221429 11 95 3.2 4.8 0.00 0.58 0.58 98 1011.0
20260509220924 11 70 3.2 4.8 0.00 0.58 0.58 98 1010.9
20260509220420 11 100 3.2 9.7 0.00 0.58 0.58 98 1011.1
20260509215917 11 137 9.7 11.3 0.00 0.58 0.58 98 1010.9
20260509215412 10 115 11.3 12.9 0.00 0.58 0.58 98 1010.9
20260509214910 10 121 4.8 8.0 0.00 0.58 0.58 98 1011.1
20260509214407 10 115 6.4 8.0 0.00 0.58 0.58 98 1011.4
20260509213904 10 77 3.2 8.0 0.00 0.58 0.58 98 1011.3
20260509213359 10 147 6.4 9.7 0.00 0.58 0.58 98 1011.3
20260509212857 10 67 3.2 11.3 0.00 0.58 0.58 98 1011.2
20260509212354 10 55 6.4 9.7 0.00 0.58 0.58 98 1011.3
20260509211850 10 105 4.8 4.8 0.00 0.58 0.58 98 1011.5
20260509211341 10 119 3.2 9.7 0.00 0.58 0.58 98 1011.3
20260509210837 10 114 4.8 8.0 0.00 0.58 0.58 98 1011.6
20260509210335 10 114 3.2 9.7 0.00 0.58 0.58 98 1011.6
20260509205834 10 111 11.3 12.9 0.00 0.58 0.58 98 1011.6
20260509205329 10 83 4.8 11.3 0.00 0.58 0.58 98 1011.5
20260509204826 10 102 9.7 11.3 0.00 0.58 0.58 98 1011.7
20260509204322 10 87 8.0 11.3 0.00 0.58 0.58 98 1011.7
20260509203819 10 94 8.0 11.3 0.00 0.58 0.58 98 1011.7
20260509203316 10 127 4.8 12.9 0.00 0.58 0.58 98 1011.6
20260509202812 10 134 8.0 11.3 0.00 0.58 0.58 98 1011.7
20260509202309 10 74 6.4 9.7 0.00 0.58 0.58 98 1011.8
20260509201808 10 113 1.6 11.3 0.00 0.58 0.58 98 1011.8
20260509201305 10 79 3.2 8.0 0.00 0.58 0.58 98 1011.8
20260509200801 10 89 4.8 8.0 0.00 0.58 0.58 98 1011.8
20260509200256 10 134 4.8 8.0 0.00 0.58 0.58 98 1011.8
20260509195752 10 36 3.2 4.8 0.00 0.58 0.58 98 1012.0
20260509195247 10 74 4.8 8.0 0.00 0.58 0.58 97 1012.0
20260509194742 10 110 3.2 4.8 0.00 0.58 0.58 97 1012.3
20260509194239 10 59 4.8 4.8 0.00 0.58 0.58 97 1012.1
20260509193736 10 58 1.6 8.0 0.18 0.58 0.58 97 1012.4
20260509193235 10 101 6.4 8.0 0.00 0.56 0.56 97 1012.3
20260509192732 10 89 4.8 8.0 0.00 0.56 0.56 97 1012.3
20260509192227 10 61 4.8 8.0 0.00 0.56 0.56 97 1012.6
20260509191723 10 67 4.8 8.0 0.00 0.56 0.56 97 1012.5
20260509191219 10 68 4.8 4.8 0.00 0.56 0.56 97 1012.5
20260509190715 10 50 3.2 11.3 0.00 0.56 0.56 97 1012.4
20260509190213 10 86 1.6 4.8 0.00 0.56 0.56 97 1012.3
20260509185710 10 110 6.4 9.7 0.00 0.56 0.56 97 1012.5
20260509185206 10 126 8.0 11.3 0.00 0.56 0.56 97 1012.5
20260509184704 10 53 1.6 11.3 0.00 0.56 0.56 97 1012.3
20260509184201 10 126 6.4 9.7 0.00 0.56 0.56 97 1012.4
20260509183657 10 132 11.3 12.9 0.00 0.56 0.56 97 1012.6
20260509183152 10 110 6.4 12.9 0.00 0.56 0.56 97 1012.5
20260509182648 10 112 4.8 11.3 0.00 0.56 0.56 97 1012.7
20260509182146 10 98 3.2 9.7 0.00 0.56 0.56 97 1012.5
20260509181643 10 114 6.4 14.5 0.00 0.56 0.56 97 1012.3
20260509181141 9 74 4.8 9.7 0.00 0.56 0.56 97 1012.6
20260509180637 9 107 9.7 11.3 0.00 0.56 0.56 97 1012.6
20260509180134 9 102 8.0 12.9 0.00 0.56 0.56 97 1012.6
20260509175629 9 133 6.4 12.9 0.00 0.56 0.56 97 1012.3
20260509175127 9 136 9.7 12.9 0.00 0.56 0.56 97 1012.6
20260509174622 9 101 6.4 11.3 0.00 0.56 0.56 97 1012.6
20260509174118 8 127 6.4 11.3 0.00 0.56 0.56 97 1012.5
20260509173614 9 111 6.4 8.0 0.00 0.56 0.56 97 1012.7
20260509173109 8 78 6.4 12.9 0.00 0.56 0.56 97 1012.7
20260509172607 8 59 9.7 12.9 0.00 0.56 0.56 97 1012.6
20260509172103 8 59 6.4 12.9 0.00 0.56 0.56 97 1012.7
20260509171558 8 95 9.7 11.3 0.00 0.56 0.56 97 1012.9
20260509171054 8 120 3.2 9.7 0.00 0.56 0.56 97 1012.8
20260509170551 8 85 6.4 11.3 0.13 0.56 0.56 97 1012.7
20260509170046 8 83 6.4 9.7 0.13 0.56 0.56 97 1013.0
20260509165545 8 60 1.6 8.0 0.00 0.53 0.53 97 1013.1
20260509165040 8 91 4.8 8.0 0.00 0.53 0.53 97 1013.1
20260509164537 8 97 4.8 8.0 0.18 0.53 0.53 97 1013.0
20260509164032 8 113 4.8 9.7 0.18 0.53 0.53 97 1013.2
20260509163531 8 90 8.0 9.7 0.00 0.51 0.51 97 1013.2
20260509163026 8 105 9.7 12.9 0.00 0.51 0.51 97 1013.3
20260509162524 8 48 6.4 11.3 0.00 0.51 0.51 97 1013.3
20260509162019 8 81 3.2 8.0 0.13 0.51 0.51 97 1013.6
20260509161516 8 79 3.2 3.2 0.00 0.48 0.48 97 1013.5
20260509161011 7 60 4.8 8.0 0.00 0.48 0.48 97 1013.7
20260509160507 7 110 8.0 12.9 0.00 0.48 0.48 97 1014.0
20260509160003 7 110 6.4 11.3 0.00 0.48 0.48 97 1013.7
20260509155459 7 100 12.9 14.5 0.00 0.48 0.48 97 1014.1
20260509154955 7 125 11.3 17.7 0.00 0.48 0.48 96 1014.1
20260509154451 7 104 9.7 16.1 0.18 0.48 0.48 97 1014.1
20260509153949 7 134 6.4 9.7 0.18 0.48 0.48 97 1014.2
20260509153446 7 88 6.4 16.1 0.00 0.46 0.46 97 1014.3
20260509152942 7 118 8.0 9.7 0.00 0.46 0.46 97 1014.3
20260509152438 7 113 4.8 9.7 0.13 0.46 0.46 97 1014.6
20260509151930 7 96 6.4 8.0 0.13 0.46 0.46 97 1014.5
20260509151426 6 129 6.4 11.3 0.00 0.43 0.43 96 1014.8
20260509150925 6 125 8.0 11.3 0.18 0.43 0.43 96 1014.7
20260509150421 6 45 3.2 9.7 0.18 0.43 0.43 96 1014.7
20260509145920 6 123 1.6 11.3 0.00 0.41 0.41 96 1014.7
20260509145420 6 71 8.0 9.7 0.13 0.41 0.41 96 1014.6
20260509144915 6 49 4.8 9.7 0.13 0.41 0.41 96 1014.6
20260509144412 6 143 4.8 4.8 0.18 0.38 0.38 96 1014.8
20260509143909 6 80 4.8 8.0 0.18 0.38 0.38 96 1015.0
20260509143407 6 86 1.6 8.0 0.13 0.36 0.36 96 1014.7
20260509142903 6 50 1.6 8.0 0.13 0.36 0.36 96 1014.7
20260509142400 6 77 1.6 4.8 0.18 0.33 0.33 96 1015.0
20260509141855 6 114 4.8 8.0 0.13 0.30 0.30 96 1014.8
20260509141352 6 95 0.0 3.2 0.30 0.30 0.30 96 1014.9
20260509140849 6 107 4.8 8.0 0.18 0.28 0.28 95 1014.8
20260509140346 6 111 8.0 9.7 0.18 0.25 0.25 95 1015.0
20260509135844 5 103 4.8 4.8 0.18 0.25 0.25 95 1014.9
20260509135341 5 95 6.4 8.0 0.00 0.23 0.23 95 1014.9
20260509134838 5 109 3.2 3.2 0.13 0.23 0.23 95 1015.0
20260509134335 5 97 4.8 4.8 0.18 0.20 0.20 95 1014.7
20260509133832 5 83 3.2 4.8 0.18 0.20 0.20 94 1014.6
20260509133329 5 25 3.2 4.8 0.13 0.18 0.18 94 1014.6
20260509132828 6 49 1.6 8.0 0.13 0.18 0.18 94 1014.8
20260509132326 6 96 8.0 11.3 0.18 0.15 0.15 94 1014.6
20260509131822 5 140 8.0 9.7 0.18 0.15 0.15 94 1014.8
20260509131319 5 92 1.6 3.2 0.00 0.13 0.13 94 1015.0
20260509130815 5 147 4.8 8.0 0.13 0.13 0.13 93 1014.9
20260509130311 5 108 4.8 8.0 0.00 0.10 0.10 93 1015.0
20260509125808 5 121 6.4 8.0 0.18 0.10 0.10 93 1015.1
20260509125307 5 34 3.2 4.8 0.18 0.10 0.10 93 1015.1
20260509124801 5 94 1.6 3.2 0.00 0.08 0.08 93 1015.1
20260509124257 5 125 8.0 8.0 0.00 0.08 0.08 93 1014.9
20260509123756 5 108 4.8 4.8 0.13 0.08 0.08 93 1015.2
20260509123253 5 134 4.8 8.0 0.13 0.08 0.08 92 1015.2
20260509122748 5 126 3.2 4.8 0.00 0.05 0.05 93 1015.1
20260509122246 5 126 1.6 4.8 0.00 0.05 0.05 93 1015.2
20260509121742 5 131 4.8 4.8 0.18 0.05 0.05 92 1015.3
20260509121239 5 140 4.8 4.8 0.18 0.05 0.05 92 1015.3
20260509120738 5 96 4.8 4.8 0.00 0.03 0.03 92 1015.4
20260509120235 5 131 3.2 4.8 0.13 0.03 0.03 92 1015.1
20260509115733 5 82 0.0 4.8 0.13 0.03 0.03 91 1015.4
20260509115230 5 78 1.6 3.2 0.00 0.00 0.00 91 1015.3
20260509114728 5 109 4.8 4.8 0.00 0.00 0.00 91 1015.5
20260509114226 5 132 3.2 3.2 0.00 0.00 0.00 91 1015.3
20260509113725 5 63 3.2 8.0 0.00 0.00 0.00 91 1015.3
20260509113222 5 78 1.6 3.2 0.00 0.00 0.00 91 1015.2
20260509112718 5 86 1.6 3.2 0.00 0.00 0.00 91 1015.2
20260509112216 4 88 3.2 8.0 0.00 0.00 0.00 90 1015.3
20260509111712 4 84 4.8 8.0 0.00 0.00 0.00 90 1015.3
20260509111209 5 124 3.2 8.0 0.00 0.00 0.00 90 1015.3
20260509110707 5 87 3.2 8.0 0.00 0.00 0.00 89 1015.2
20260509110203 5 72 4.8 9.7 0.00 0.00 0.00 89 1015.2
20260509105701 5 61 0.0 4.8 0.00 0.00 0.00 90 1015.0
20260509105158 5 88 1.6 4.8 0.00 0.00 0.00 90 1015.0
20260509104655 4 80 1.6 8.0 0.00 0.00 0.00 90 1014.8
20260509104152 4 124 3.2 4.8 0.00 0.00 0.00 90 1014.8
20260509103650 4 78 4.8 8.0 0.00 0.00 0.00 90 1015.0
20260509103148 4 47 3.2 4.8 0.00 0.00 0.00 90 1015.0
20260509102646 4 75 1.6 8.0 0.00 0.00 0.00 90 1014.9
20260509102142 4 79 3.2 3.2 0.00 0.00 0.00 90 1014.8
20260509101638 4 32 0.0 1.6 0.00 0.00 0.00 90 1014.6
20260509101135 4 142 3.2 4.8 0.00 0.00 0.00 90 1014.9
20260509100633 3 108 1.6 3.2 0.00 0.00 0.00 90 1014.7
20260509100130 3 36 0.0 4.8 0.00 0.00 0.00 91 1014.7
20260509095626 3 31 0.0 4.8 0.00 0.00 0.00 91 1014.7
20260509095124 3 83 3.2 3.2 0.00 0.00 0.00 91 1014.8
20260509094620 3 78 3.2 4.8 0.00 0.00 0.00 91 1015.0
20260509094117 3 116 3.2 4.8 0.00 0.00 0.00 91 1015.0
20260509093616 3 37 0.0 1.6 0.00 0.00 0.00 91 1015.1
20260509093112 3 44 1.6 3.2 0.00 0.00 0.00 91 1015.2
20260509092610 3 103 0.0 4.8 0.00 0.00 0.00 91 1015.1
20260509092108 3 53 1.6 4.8 0.00 0.00 0.00 91 1015.1
20260509091606 3 115 4.8 4.8 0.00 0.00 0.00 92 1015.0
20260509091102 2 71 3.2 8.0 0.00 0.00 0.00 92 1015.3
20260509090600 2 95 3.2 4.8 0.00 0.00 0.00 93 1015.3
20260509090057 2 345 0.0 0.0 0.00 0.00 0.00 93 1015.3
20260509085554 2 324 0.0 0.0 0.00 0.00 0.00 93 1015.3
20260509085050 2 345 0.0 1.6 0.00 0.00 0.00 93 1015.4
20260509084547 2 24 0.0 1.6 0.00 0.00 0.00 93 1015.3
20260509084044 2 340 0.0 0.0 0.00 0.00 0.00 92 1015.5
20260509083542 2 346 0.0 0.0 0.00 0.00 0.00 92 1015.7
20260509083038 2 30 0.0 1.6 0.00 0.00 0.00 92 1015.6
20260509082536 2 12 0.0 1.6 0.00 0.00 0.00 92 1015.5
20260509082033 2 3 0.0 1.6 0.00 0.00 0.00 92 1015.8